Location: Newark
(47.5347°N, 5.5339°E)
Time: 04:41:02
(UTC+00:00)

ISS - Visible Passes

Search period start: 23 September 2019 00:00
Search period end: 03 October 2019 00:00
Orbit: 411 x 421 km, 51.6° (Epoch: 23 September)

Date Brightness Start Highest point End Pass type
(mag) Time Alt. Az. Time Alt. Az. Time Alt. Az.
23 Sep -3.8 18:34:41 10° SW 18:37:59 71° SSE 18:40:32 16° ENE visible
23 Sep -1.5 20:11:42 10° W 20:13:25 25° WNW 20:13:25 25° WNW visible
24 Sep -3.1 19:23:05 10° W 19:26:20 49° NNW 19:26:57 42° NNE visible
25 Sep -3.4 18:34:30 10° W 18:37:48 63° NNW 18:40:23 15° ENE visible
25 Sep -1.3 20:11:43 10° WNW 20:13:17 23° NW 20:13:17 23° NW visible
26 Sep -2.8 19:23:07 10° WNW 19:26:17 39° N 19:26:39 37° NNE visible
27 Sep -2.9 18:34:29 10° W 18:37:41 43° N 18:40:00 17° ENE visible
27 Sep -1.1 20:11:35 10° WNW 20:12:53 21° NW 20:12:53 21° NW visible
28 Sep -2.8 19:23:02 10° WNW 19:26:11 40° N 19:26:11 40° N visible
29 Sep -2.8 18:34:25 10° WNW 18:37:34 38° N 18:39:28 20° ENE visible
29 Sep -0.9 20:11:18 10° WNW 20:12:21 19° WNW 20:12:21 19° WNW visible
30 Sep -3.1 19:22:47 10° WNW 19:25:38 48° NNW 19:25:38 48° NNW visible
01 Oct -3.1 18:34:13 10° WNW 18:37:25 44° N 18:38:54 26° ENE visible
01 Oct -0.8 20:10:59 10° WNW 20:11:48 16° WNW 20:11:48 16° WNW visible
02 Oct -2.9 17:45:36 10° WNW 17:48:46 40° N 17:51:56 10° ENE visible
02 Oct -3.1 19:22:24 10° WNW 19:25:05 55° WNW 19:25:05 55° WNW visible
